Home   Weather   Ilio   Past weeks

Flag for Greece Past Weather in Ilio, Greece — Yesterday and Last 2 Weeks

66 °F

Passing clouds.

Feels Like: 66 °F
Forecast: 58 / 69 °F
Wind: 8 mph from Northwest

Location: Elefsis Airport

Current Time: Oct 24, 2016 at 6:29:06 AM

Latest Report: Oct 24, 2016 at 5:50 AM

Visibility: N/A

Pressure: 30.15 "Hg

Humidity: 78%

Dew Point: 59 °F

Location of IlioLocation

Past Weather in Ilio — Graph


Ilio Temperature Yesterday

Maximum temperature yesterday: 75 °F (at 12:50 PM)
Minimum temperature yesterday: 57 °F (at 5:50 AM)
Average temperature yesterday: 66 °F

High & Low Weather Summary for the Past Weeks

High82 °F (Oct 12, 4:20 PM)100% (Oct 19, 10:50 PM)30.27 "Hg (Oct 19, 10:50 PM)
Low50 °F (Oct 19, 6:50 AM)13% (Oct 13, 4:50 PM)29.74 "Hg (Oct 12, 1:50 AM)
Average67 °F61%30.06 "Hg
* Reported Oct 9 4:20 AM — Oct 24 4:50 AM, Ilio, Weather by CustomWeather, © 2016

Note: Actual official high and low records may vary slightly from our data, if they occured in-between our weather recording intervals... More about our weather records


Ilio Weather History for the Previous 24 Hours

Scroll right to see more
Time TempWeatherWind HumidityBarometerVisibility
4:50 AM
Mon, Oct 24
64 °FPassing clouds.No wind83%30.15 "HgN/A
4:20 AM66 °FPassing clouds.No wind78%30.15 "HgN/A
3:50 AM66 °FPassing clouds.No wind78%30.15 "HgN/A
3:20 AM66 °FPassing clouds.No wind78%30.15 "HgN/A
2:50 AM64 °FPassing clouds.No wind78%30.15 "HgN/A
2:20 AM64 °FPassing clouds.No wind83%30.15 "HgN/A
1:50 AM64 °FPassing clouds.No wind83%30.15 "HgN/A
12:50 AM64 °FPassing clouds.No wind83%30.15 "HgN/A
12:20 AM64 °FPassing clouds.No wind83%30.15 "HgN/A
11:50 PM
Sun, Oct 23
64 °FPassing clouds.No wind83%30.12 "HgN/A
11:20 PM63 °FPassing clouds.No wind88%30.15 "HgN/A
10:20 PM63 °FPassing clouds.No wind88%30.15 "HgN/A
9:50 PM64 °FPassing clouds.No wind83%30.12 "HgN/A
9:20 PM66 °FPassing clouds.No wind78%30.12 "HgN/A
8:50 PM66 °FPassing clouds.No wind78%30.12 "HgN/A
8:20 PM68 °FPassing clouds.No wind73%30.12 "HgN/A
7:50 PM68 °FPassing clouds.No wind73%30.12 "HgN/A
7:20 PM70 °FPassing clouds.No wind69%30.12 "HgN/A
6:50 PM72 °FPassing clouds.No wind65%30.09 "HgN/A
6:20 PM72 °FPassing clouds.No wind65%30.09 "HgN/A
5:50 PM73 °FPartly sunny.No wind57%30.09 "HgN/A
5:20 PM73 °FPartly sunny.6 mph57%30.09 "HgN/A
4:50 PM73 °FPartly sunny.7 mph57%30.09 "HgN/A
4:20 PM75 °FScattered clouds.6 mph57%30.09 "HgN/A
3:50 PM75 °FScattered clouds.6 mph57%30.09 "HgN/A
3:20 PM75 °FPassing clouds.6 mph57%30.09 "HgN/A
2:50 PM75 °FPartly sunny.7 mph57%30.09 "HgN/A
2:20 PM75 °FPassing clouds.7 mph54%30.09 "HgN/A
1:50 PM75 °FPassing clouds.No wind54%30.09 "HgN/A
1:20 PM75 °FPassing clouds.No wind54%30.09 "HgN/A
12:50 PM75 °FPassing clouds.No wind54%30.09 "HgN/A
11:50 AM73 °FPassing clouds.No wind53%30.12 "HgN/A
11:20 AM73 °FPassing clouds.No wind53%30.12 "HgN/A
10:50 AM72 °FPassing clouds.No wind61%30.12 "HgN/A
10:20 AM70 °FPassing clouds.No wind64%30.12 "HgN/A
9:50 AM66 °FPassing clouds.No wind78%30.12 "HgN/A
9:20 AM64 °FPassing clouds.No wind83%30.09 "HgN/A
8:50 AM61 °FPassing clouds.No wind88%30.09 "HgN/A
8:20 AM59 °FPassing clouds.No wind88%30.09 "HgN/A
7:50 AM57 °FPassing clouds.No wind94%30.09 "HgN/A
7:20 AM57 °FPassing clouds.No wind94%30.09 "HgN/A
6:50 AM57 °FPassing clouds.No wind88%30.09 "HgN/A
6:20 AM57 °FPassing clouds.No wind94%30.07 "HgN/A
Weather by CustomWeather, © 2016

See weather overviewHow to use our weather pages